Location: Hickory_CSC
(35.7330°N, 81.3330°W)
Time: 16:29:09
(UTC-04:00)

Cosmos 1356 Rocket - Visible Passes

Search period start: 24 July 2016 00:00
Search period end: 03 August 2016 00:00
Orbit: 545 x 600 km, 81.2° (Epoch: 24 July)

Date Brightness Start Highest point End Pass type
(mag) Time Alt. Az. Time Alt. Az. Time Alt. Az.
24 Jul 6.1 22:28:37 10° WSW 22:31:42 20° WNW 22:34:51 10° NNW visible
25 Jul 6.4 22:32:11 10° WSW 22:34:37 15° WNW 22:37:04 10° NW visible
26 Jul 3.7 20:56:07 10° S 21:00:10 50° E 21:04:19 10° NNE visible
26 Jul 6.7 22:36:20 10° W 22:37:32 11° WNW 22:38:44 10° NW visible
27 Jul 3.4 20:58:45 10° S 21:02:56 70° E 21:07:13 10° NNE visible
28 Jul 3.6 21:01:31 10° S 21:05:43 84° W 21:10:02 10° N visible
29 Jul 4.1 21:04:22 10° SSW 21:08:32 60° W 21:12:48 10° N visible
30 Jul 4.9 21:07:19 10° SSW 21:11:22 43° WNW 21:15:29 10° N visible
31 Jul 5.6 21:10:24 10° SW 21:14:13 32° WNW 21:18:05 10° NNW visible
01 Aug 6.2 21:13:37 10° SW 21:17:05 24° WNW 21:20:35 10° NNW visible
02 Aug 6.6 21:17:00 10° WSW 21:19:58 18° WNW 21:22:58 10° NNW visible
